Temperature
22 21 20 20 19 19 19 19 19 19 19 18 18 18 18 18 18 18 18 18 18 18 18 18 18 18 18 18 18 18 18 18 18 18 19 19 19 19 18 18 18 18 18
22 21 21 20 20 19 19 19 19 19 19 19 19 18 18 18 18 18 18 18 18 18 18 18 18 18 18 18 18 18 18 18 18 18 19 20 19 19 19 19 18 18 18
23 22 21 21 20 20 19 19 19 19 19 19 18 18 18 18 18 18 18 18 18 18 18 18 18 18 18 18 18 18 18 18 18 18 18 19 20 19 19 19 18 18 18
24 23 22 21 21 20 20 20 20 20 19 19 19 19 18 19 19 18 18 18 18 18 18 18 18 18 18 18 18 18 18 18 18 18 18 18 18 19 19 19 19 18 18
24 23 23 22 21 21 20 20 20 20 20 19 19 19 18 18 18 18 18 18 18 18 18 18 18 18 18 18 18 18 18 18 18 18 18 18 18 18 19 19 19 19 18
25 24 23 22 21 21 21 20 20 20 20 20 19 19 19 19 18 18 18 18 18 18 18 18 18 18 18 18 18 18 18 18 18 18 18 18 18 18 19 19 19 19 19
25 24 23 22 22 21 21 20 20 20 20 20 20 19 19 19 19 19 18 18 19 19 18 18 18 18 18 18 18 18 18 18 18 18 18 18 18 18 18 18 19 18 19
25 24 24 23 22 21 21 20 20 20 20 20 20 20 19 19 18 19 18 18 18 19 18 18 18 18 18 18 18 18 18 18 18 18 17 17 18 18 18 18 18 18 19
25 25 24 23 22 21 21 20 20 20 20 20 20 20 19 19 19 19 19 18 18 18 18 18 18 18 18 18 18 18 18 18 18 18 17 17 18 17 17 18 18 18 18
25 24 24 23 22 22 21 21 20 20 20 20 20 19 19 19 19 19 18 19 18 18 18 18 18 18 18 18 18 18 17 17 17 17 17 17 17 18 17 17 17 17 18
24 24 23 23 22 22 21 21 20 20 19 19 19 19 19 19 19 19 19 19 18 18 18 18 18 18 18 18 18 18 17 17 17 17 17 17 17 17 17 17 17 17 17
24 23 23 23 22 22 21 21 20 20 19 19 19 19 19 19 19 19 19 19 18 18 18 18 18 18 18 18 18 17 17 17 17 17 17 17 17 17 17 17 17 17 17
23 23 22 22 22 21 21 21 20 20 20 19 19 19 19 19 19 19 19 19 18 18 18 18 18 18 18 17 17 17 17 17 17 17 17 17 16 16 16 16 16 16 16
22 22 22 21 21 21 20 20 20 20 20 19 19 19 19 19 19 19 18 18 18 18 18 18 18 17 17 17 17 17 17 17 17 16 16 16 16 16 16 16 16 16 16
21 21 21 20 20 20 19 19 20 20 19 19 19 19 19 19 18 18 18 18 18 18 18 18 17 17 17 17 17 17 17 17 16 16 16 16 16 16 16 16 16 16 16
21 20 20 20 19 19 19 19 19 19 19 19 19 19 18 18 18 18 18 18 18 18 18 17 17 17 17 17 17 17 16 16 16 16 16 16 16 16 16 16 16 15 15
20 20 19 19 19 19 18 18 18 18 18 18 18 18 18 18 18 18 18 18 18 18 17 17 17 17 17 17 17 17 16 16 16 15 15 16 16 15 15 15 15 15 15
20 19 19 19 19 18 18 18 18 18 18 18 18 18 18 18 18 18 18 18 18 17 17 17 17 17 17 17 16 16 16 16 15 15 15 15 15 15 15 15 15 15 15
19 19 19 19 18 18 18 18 18 18 18 18 18 18 18 18 18 18 17 17 17 17 17 17 17 16 16 16 16 16 16 15 15 15 15 15 15 15 15 15 14 14 14
18 18 18 18 18 18 18 18 17 17 17 17 17 17 17 17 17 17 17 17 17 16 16 16 16 16 16 16 16 16 15 15 15 15 15 15 15 15 15 14 14 14 14
17 17 17 17 17 17 17 17 17 17 17 16 16 16 16 16 16 16 17 16 16 16 16 16 16 16 16 16 16 15 15 15 15 15 15 15 15 14 14 14 14 14 14
17 17 17 17 17 17 17 16 16 16 16 16 16 16 16 16 16 16 16 16 16 15 15 15 15 15 15 15 15 15 15 14 14 14 14 14 14 14 14 14 14 14 13
16 16 16 16 16 16 16 15 16 16 15 15 15 15 15 15 15 15 15 15 15 15 15 15 15 15 15 15 14 14 14 14 14 14 14 14 14 14 13 13 13 13 13
16 16 16 16 15 15 15 15 15 15 15 15 15 15 14 14 14 14 15 15 15 15 15 15 15 15 14 14 14 14 14 14 13 13 13 13 13 13 13 13 13 13 12
15 15 15 15 15 15 15 15 15 15 14 14 14 14 14 14 14 14 14 14 14 14 14 14 14 14 14 14 14 14 13 13 13 13 13 13 13 12 12 12 12 12 12
15 15 15 14 14 14 14 14 14 14 14 14 14 14 14 14 14 14 14 14 14 14 14 14 14 13 14 14 13 13 13 13 13 12 12 12 12 12 12 12 12 12 12
Wind_Speed
12 13 12 12 12 12 12 11 10 10 8 7 7 7 6 6 6 6 5 6 5 5 5 4 4 5 3 3 4 3 3 3 2 3 3 3 4 3 3 3 3 3 3
12 13 13 13 13 13 12 12 11 11 10 8 6 5 5 5 5 4 4 6 5 5 6 5 5 4 3 4 3 3 3 2 2 3 3 2 3 4 3 3 3 3 3
13 14 15 15 14 14 14 12 12 12 11 10 7 6 5 5 5 5 5 5 5 5 5 4 5 4 5 3 3 3 4 3 3 3 3 3 2 1 2 2 3 2 3
13 14 15 16 16 15 14 14 13 12 12 11 9 10 8 7 6 5 4 5 5 6 5 5 5 5 5 3 5 3 3 4 4 3 3 4 3 3 2 3 2 3 3
13 14 15 15 15 15 14 14 14 13 13 12 11 10 9 8 6 6 5 5 5 6 6 5 5 5 5 4 4 3 5 4 4 4 3 4 4 5 4 3 3 3 3
12 12 13 14 13 14 14 14 14 14 14 14 13 12 11 9 8 7 6 6 6 6 6 6 5 5 5 4 5 5 6 5 5 5 4 4 4 4 4 5 4 3 3
11 11 12 13 13 14 14 14 15 15 15 15 14 13 13 12 11 9 8 7 6 6 6 6 5 5 5 5 5 6 6 6 6 6 5 5 5 5 5 5 5 4 4
10 11 11 12 13 13 14 13 14 15 15 15 14 13 13 11 10 11 9 8 7 6 5 6 6 6 6 6 5 6 6 6 6 7 6 5 5 5 5 5 5 5 5
7 9 10 10 11 13 13 13 13 13 13 14 13 13 13 12 10 9 10 9 7 7 7 7 7 7 6 6 6 6 6 6 6 6 6 6 5 5 5 5 5 5 6
4 6 7 8 9 11 12 12 12 12 12 12 12 11 12 12 10 10 10 9 8 7 7 8 8 7 7 7 7 7 6 6 6 5 6 6 6 4 5 5 5 5 6
3 4 5 7 7 8 9 10 11 11 11 11 11 11 11 12 12 11 11 10 9 9 9 9 8 8 8 7 7 7 7 7 7 7 7 6 6 5 5 5 5 5 6
2 3 4 5 6 7 7 8 9 9 9 10 10 10 10 11 11 11 11 10 10 10 10 9 9 9 9 8 8 9 8 8 8 7 7 7 6 6 6 5 6 5 5
1 2 3 3 5 5 6 7 7 8 8 8 9 9 10 11 11 11 10 10 10 10 9 9 9 9 9 8 8 8 8 8 8 8 8 8 7 7 5 6 6 6 6
1 1 2 2 3 4 5 5 6 6 6 7 8 9 9 10 10 10 10 10 10 10 10 9 9 9 9 8 8 8 8 8 8 8 8 8 7 7 6 6 6 6 6
1 0 1 1 2 3 4 4 4 4 5 6 7 8 8 8 9 9 10 10 10 10 9 9 9 9 8 8 8 8 8 7 7 7 7 7 5 4 5 5 4 5 6
1 1 1 1 1 2 3 4 4 4 4 4 5 5 6 7 8 8 9 9 9 9 9 10 10 9 8 5 6 7 7 6 7 7 7 6 6 5 4 4 4 5 6
2 1 1 1 1 1 2 3 3 4 4 4 3 3 4 5 6 7 7 8 8 8 9 9 9 9 8 6 7 7 7 7 6 6 6 6 4 5 5 5 6 5 5
2 2 2 2 1 1 2 2 3 4 4 4 4 4 4 4 4 5 6 6 7 7 8 9 9 9 8 9 9 8 8 7 6 7 7 6 6 5 5 5 5 5 5
3 2 2 2 2 1 1 2 3 3 4 4 4 4 4 4 4 5 5 5 5 6 7 7 8 9 8 9 10 8 7 6 7 7 7 7 7 3 4 6 6 5 5
3 3 3 3 2 2 2 3 3 3 4 4 4 4 4 5 5 5 5 5 5 6 6 6 7 8 8 9 10 10 7 7 7 6 7 7 6 5 5 6 6 6 5
4 4 4 3 3 3 3 3 4 4 4 4 4 4 4 5 5 5 5 5 6 5 5 6 6 6 6 8 11 10 7 7 7 6 6 4 7 6 6 7 6 5 4
4 4 4 4 3 3 3 4 4 4 4 4 4 5 5 6 5 5 5 6 6 6 6 5 5 5 5 6 8 9 9 7 7 7 5 2 5 5 6 6 3 4 6
5 4 4 4 4 3 4 5 5 5 5 5 5 5 5 5 5 6 6 6 6 6 6 5 5 4 4 5 8 9 8 8 6 5 1 3 5 5 5 7 7 6 6
5 5 5 5 5 4 4 5 5 5 5 6 6 5 5 6 5 5 6 6 6 6 6 5 5 4 4 4 4 4 4 6 5 3 3 5 7 7 5 6 6 6 5
6 6 6 6 6 6 6 6 5 5 6 7 7 7 6 6 5 6 5 6 5 5 5 5 5 5 6 3 2 3 4 4 3 3 4 4 4 5 5 4 5 5 5
7 7 8 8 8 7 6 6 6 6 7 7 7 7 6 5 6 6 5 2 3 1 2 4 6 5 2 3 4 3 2 4 6 5 5 5 5 5 5 5 5 5 4
Wind_Direction
191 191 192 193 191 190 191 193 193 188 191 195 201 200 201 205 209 214 213 225 235 232 238 252 226 238 235 242 245 249 235 246 259 267 255 223 221 233 232 241 255 239 238
191 191 194 195 195 193 195 195 196 194 197 196 203 208 212 214 216 221 211 226 231 236 231 236 240 232 228 232 244 254 271 270 254 277 281 250 206 214 223 227 232 257 245
196 192 194 196 197 198 198 199 199 198 200 197 199 199 204 220 214 217 219 226 231 236 248 244 254 253 249 233 237 241 246 264 261 259 280 292 289 295 201 232 236 246 256
199 195 194 198 200 200 198 198 198 199 198 198 204 205 210 216 218 222 217 220 227 234 236 240 245 250 257 244 246 232 252 256 265 253 255 275 302 285 272 236 231 236 243
201 199 198 199 201 199 198 196 196 198 198 200 203 209 219 222 221 221 217 230 226 232 237 238 239 240 251 252 260 251 251 250 260 264 253 249 241 250 267 278 277 256 243
201 201 199 198 201 199 199 197 195 199 200 202 206 210 218 223 225 224 222 223 224 226 228 232 236 241 249 244 245 247 238 250 260 268 265 258 256 252 259 267 266 269 262
198 196 196 195 198 200 200 200 198 201 201 203 207 209 215 218 221 226 225 232 233 226 221 230 228 239 244 248 245 241 251 242 244 249 258 262 263 266 266 271 276 276 268
194 195 196 198 200 200 201 202 202 204 203 204 207 210 213 218 221 222 233 227 235 235 223 223 229 235 239 243 239 248 243 240 245 249 254 261 261 263 263 270 278 278 269
190 191 192 196 200 202 201 201 201 204 206 206 207 210 212 220 224 220 223 230 231 230 221 222 226 232 233 238 240 249 250 244 245 248 239 249 253 253 260 261 263 273 281
185 187 190 192 196 200 199 200 201 205 209 209 210 210 211 214 220 225 225 230 231 231 229 226 228 229 228 231 238 246 242 245 244 250 259 257 258 258 256 255 256 258 269
181 179 182 187 186 188 193 196 198 202 206 209 210 213 212 212 215 220 225 226 229 228 229 230 230 231 231 230 233 246 244 246 247 247 244 245 258 260 263 260 259 256 258
161 169 172 173 176 180 185 190 194 199 205 208 208 212 214 214 215 217 220 220 223 226 226 229 231 235 234 232 234 241 242 244 246 244 242 242 239 241 257 264 263 263 262
138 154 160 168 174 180 183 185 192 197 202 205 210 215 216 216 218 219 218 217 219 223 226 226 229 232 234 234 236 241 244 247 248 245 242 241 243 246 249 255 260 261 258
86 137 152 165 169 176 181 189 194 194 198 205 213 218 222 223 222 221 221 221 220 221 224 226 227 229 233 236 238 239 242 245 249 249 245 242 242 244 244 245 250 259 265
43 30 161 159 166 175 182 186 189 188 195 204 217 223 227 226 225 224 223 222 222 222 221 223 225 229 230 233 234 237 237 240 246 247 246 243 237 255 258 262 255 255 258
12 14 26 121 164 187 187 180 182 182 187 203 219 225 229 226 223 221 221 221 221 223 221 223 225 226 229 202 207 232 241 241 245 250 250 246 224 217 228 256 272 277 258
352 343 340 315 237 218 199 184 183 181 186 199 218 223 225 222 220 220 219 222 223 222 223 224 225 227 221 192 194 212 234 240 243 247 249 253 236 211 228 217 219 240 253
343 328 315 308 273 223 194 199 192 191 194 203 220 224 224 227 229 224 222 224 225 226 227 227 227 229 218 190 195 207 224 234 238 244 243 242 242 236 233 241 237 237 239
327 321 313 304 302 271 217 199 213 210 214 220 227 229 229 234 231 225 225 226 229 231 232 232 231 230 221 194 194 206 223 227 236 240 238 234 233 197 211 231 235 235 237
336 330 325 321 309 288 262 232 234 236 240 242 241 239 239 238 235 231 227 228 230 233 237 236 234 234 229 195 191 205 226 225 231 232 231 219 217 190 203 227 231 233 237
325 320 313 306 301 288 271 258 255 254 259 254 249 247 243 243 244 242 240 234 232 232 235 238 237 232 224 197 194 207 229 236 237 238 236 218 170 182 208 236 238 238 251
318 315 310 303 296 283 269 266 271 277 272 261 253 251 248 250 245 238 240 237 233 231 228 224 231 228 211 201 193 200 223 257 253 251 249 216 160 191 219 232 220 217 242
314 314 309 303 295 279 267 264 271 273 268 259 254 254 252 248 246 238 237 238 232 236 234 229 232 230 216 198 188 198 210 227 246 258 240 166 180 198 218 206 202 216 236
302 303 303 301 296 293 284 269 267 266 265 260 257 252 248 245 238 237 238 241 243 243 241 239 239 238 227 219 208 212 209 202 218 232 197 187 204 214 212 205 213 230 241
293 292 291 290 288 286 284 280 276 270 266 265 261 257 252 248 246 246 252 249 253 257 249 245 241 238 238 213 180 224 228 226 217 212 225 225 221 224 225 230 231 230 226
289 288 287 287 287 284 279 278 273 267 263 264 264 260 256 248 245 244 252 261 257 217 227 263 262 253 234 158 158 177 185 178 183 211 226 227 229 233 234 238 238 238 236
Height
1536 1539 1541 1544 1546 1548 1550 1552 1554 1556 1558 1560 1562 1564 1566 1567 1568 1569 1569 1570 1571 1571 1571 1572 1571 1571 1572 1572 1572 1572 1571 1571 1571 1571 1570 1570 1569 1569 1569 1569 1568 1568 1567
1533 1536 1538 1541 1543 1545 1547 1549 1551 1554 1556 1558 1560 1562 1564 1565 1567 1567 1567 1568 1569 1569 1570 1569 1570 1570 1570 1569 1569 1569 1570 1570 1570 1569 1569 1568 1569 1567 1567 1567 1566 1566 1566
1529 1532 1535 1537 1540 1542 1544 1547 1549 1551 1554 1556 1558 1560 1561 1563 1565 1565 1566 1566 1567 1568 1568 1568 1568 1568 1569 1569 1568 1567 1567 1568 1568 1568 1568 1567 1566 1566 1566 1565 1565 1564 1564
1525 1528 1530 1533 1536 1538 1541 1543 1546 1548 1551 1553 1556 1557 1559 1561 1562 1563 1564 1564 1565 1565 1566 1566 1566 1566 1567 1566 1566 1566 1566 1566 1567 1566 1565 1566 1565 1565 1565 1564 1564 1563 1562
1521 1523 1526 1529 1532 1535 1538 1540 1542 1545 1547 1550 1552 1554 1556 1558 1560 1561 1561 1562 1563 1563 1563 1564 1564 1563 1564 1564 1564 1564 1564 1564 1564 1564 1564 1564 1563 1564 1563 1562 1562 1561 1560
1517 1520 1523 1526 1529 1532 1534 1536 1538 1540 1543 1546 1548 1550 1552 1554 1556 1557 1558 1559 1560 1561 1561 1561 1561 1561 1562 1562 1561 1561 1562 1562 1561 1562 1562 1562 1562 1561 1561 1560 1559 1559 1558
1514 1517 1520 1523 1525 1528 1530 1533 1534 1536 1539 1541 1544 1546 1548 1550 1552 1554 1555 1556 1558 1558 1558 1559 1559 1559 1559 1559 1559 1559 1559 1559 1559 1559 1559 1559 1559 1559 1559 1559 1558 1557 1556
1510 1513 1516 1519 1522 1524 1527 1529 1530 1532 1534 1537 1539 1542 1544 1546 1548 1550 1552 1553 1554 1556 1556 1556 1556 1557 1557 1557 1557 1558 1557 1557 1556 1557 1556 1556 1557 1557 1556 1556 1556 1555 1554
1508 1511 1513 1516 1518 1520 1522 1524 1526 1528 1530 1533 1535 1538 1540 1542 1545 1547 1548 1550 1550 1552 1552 1553 1553 1554 1554 1554 1554 1555 1554 1554 1554 1554 1554 1554 1554 1554 1553 1553 1553 1553 1551
1507 1509 1511 1513 1514 1517 1519 1521 1523 1525 1527 1529 1531 1534 1535 1537 1540 1543 1544 1545 1547 1548 1549 1549 1550 1550 1551 1551 1551 1552 1551 1551 1551 1551 1550 1550 1551 1551 1550 1550 1550 1549 1549
1506 1508 1509 1511 1513 1514 1516 1518 1520 1522 1524 1526 1528 1529 1531 1533 1535 1537 1539 1541 1542 1543 1544 1545 1546 1547 1547 1547 1547 1548 1548 1548 1548 1547 1548 1547 1547 1547 1547 1547 1547 1546 1546
1505 1506 1508 1509 1510 1512 1514 1515 1517 1518 1520 1522 1524 1526 1527 1529 1531 1533 1534 1536 1537 1539 1540 1541 1542 1543 1543 1544 1544 1544 1545 1545 1544 1544 1544 1544 1544 1543 1543 1543 1543 1543 1542
1505 1505 1506 1507 1508 1510 1511 1513 1514 1516 1518 1519 1520 1522 1524 1525 1527 1529 1530 1532 1533 1534 1536 1537 1538 1538 1539 1539 1540 1540 1540 1541 1541 1540 1540 1540 1540 1540 1540 1539 1540 1540 1539
1504 1505 1505 1506 1506 1507 1509 1510 1511 1513 1515 1516 1517 1519 1520 1521 1523 1525 1526 1527 1528 1530 1531 1532 1533 1534 1535 1535 1536 1536 1536 1536 1536 1536 1536 1536 1536 1535 1535 1535 1535 1535 1535
1504 1504 1504 1504 1505 1506 1507 1507 1508 1510 1512 1513 1514 1515 1516 1518 1519 1520 1521 1523 1524 1525 1526 1527 1528 1529 1530 1531 1531 1532 1532 1532 1532 1532 1532 1532 1531 1531 1531 1532 1532 1532 1532
1504 1503 1503 1503 1503 1504 1504 1505 1506 1507 1508 1509 1510 1511 1512 1513 1514 1515 1516 1518 1519 1520 1521 1522 1523 1524 1525 1526 1526 1527 1527 1528 1528 1527 1527 1527 1526 1527 1527 1527 1527 1528 1528
1503 1502 1502 1502 1502 1503 1503 1503 1504 1505 1505 1506 1507 1508 1508 1509 1510 1511 1512 1513 1514 1515 1516 1517 1518 1519 1520 1520 1521 1522 1523 1523 1523 1523 1523 1524 1524 1523 1523 1523 1523 1523 1523
1502 1501 1501 1500 1501 1501 1502 1502 1502 1503 1503 1503 1503 1504 1504 1505 1505 1506 1507 1508 1509 1510 1511 1512 1513 1514 1514 1515 1516 1517 1518 1519 1519 1519 1519 1519 1520 1520 1520 1521 1520 1520 1519
1501 1500 1500 1499 1499 1499 1499 1500 1500 1500 1501 1501 1501 1501 1501 1501 1502 1502 1502 1503 1504 1505 1506 1507 1507 1508 1509 1510 1511 1512 1513 1514 1514 1514 1515 1515 1516 1515 1516 1516 1516 1516 1516
1499 1498 1498 1497 1497 1496 1497 1497 1498 1498 1498 1497 1497 1498 1497 1498 1498 1499 1499 1500 1500 1500 1501 1502 1502 1503 1504 1505 1506 1507 1508 1509 1510 1510 1511 1511 1511 1511 1511 1512 1512 1512 1512
1497 1496 1495 1495 1494 1494 1494 1494 1494 1494 1494 1494 1494 1494 1494 1494 1495 1495 1496 1496 1496 1496 1496 1497 1497 1498 1499 1499 1500 1502 1504 1505 1506 1506 1507 1507 1507 1507 1507 1507 1508 1508 1508
1496 1495 1493 1493 1492 1491 1491 1491 1491 1491 1491 1491 1491 1491 1491 1491 1492 1491 1492 1492 1492 1492 1492 1492 1492 1493 1494 1494 1495 1497 1499 1501 1501 1502 1502 1502 1502 1502 1502 1503 1503 1503 1504
1494 1493 1492 1491 1490 1489 1488 1488 1487 1487 1487 1487 1487 1487 1487 1487 1487 1487 1488 1488 1488 1489 1489 1488 1489 1489 1490 1491 1491 1492 1493 1495 1496 1497 1497 1497 1497 1497 1497 1497 1498 1499 1499
1492 1491 1490 1489 1488 1487 1486 1485 1484 1483 1483 1483 1483 1483 1483 1483 1483 1483 1484 1484 1484 1484 1485 1484 1484 1485 1486 1487 1487 1488 1489 1490 1490 1491 1491 1491 1492 1492 1493 1493 1494 1494 1495
1490 1488 1487 1486 1485 1484 1482 1482 1481 1480 1479 1479 1478 1478 1479 1479 1479 1479 1479 1479 1480 1480 1480 1480 1480 1480 1481 1482 1482 1483 1484 1485 1486 1486 1486 1487 1487 1488 1489 1489 1490 1490 1490
1486 1485 1484 1483 1481 1480 1479 1478 1477 1476 1475 1474 1474 1474 1474 1475 1475 1475 1474 1474 1474 1474 1475 1475 1476 1476 1477 1477 1478 1479 1479 1479 1481 1482 1482 1482 1483 1484 1485 1485 1486 1486 1486